Location: Waco, TX
(31.5480°N, 97.1670°W)
Time: 00:53:07
(UTC-06:00)

ISS - Pass Details

Date: 20 January 2018
Orbit: 402 x 407 km, 51.6° (Epoch: 21 January)

Event Time Altitude Azimuth Distance (km) Brightness Sun altitude
Rises 04:58:05 0° 312° (NW) 2,319 - -31.5°
Reaches altitude 10° 05:00:10 10° 310° (NW) 1,458 - -31.1°
Maximum altitude 05:03:25 69° 227° (SW) 434 - -30.4°
Drops below altitude 10° 05:06:40 10° 143° (SE) 1,452 - -29.7°
Exits shadow 05:07:01 - 143° (SE) 1,596 -0.3 -29.6°
Sets 05:08:44 0° 141° (SE) 2,309 0.6 -29.3°
